SAA75W FALE-FACT

Flight info

Callsign SAA75W
Flight time N/A
Altitude 40000
Route TUBIN1B TUBIN UZ3 ESRUK UQ51 GETEN GETEN1C
Aircraft A343/H-SDE2E3FGHIJ4J5M1RWXY/LB1D1

Departure

Time 2026-05-04 20:21
Airport King Shaka International Airport (FALE)

Arrival

Time N/A
Airport Cape Town International Airport (FACT)
Time Latitude Longitude Altitude Speed Heading
2026-05-04 19:39 -29.61943 31.10613 306 ft 0 kts 308°
2026-05-04 19:59 -29.61945 31.10616 305 ft 4 kts 308°
2026-05-04 19:59 -29.61958 31.10632 309 ft 2 kts 312°
2026-05-04 20:00 -29.61968 31.10641 305 ft 2 kts 335°
2026-05-04 20:00 -29.61979 31.10649 307 ft 2 kts 47°
2026-05-04 20:00 -29.61989 31.10646 308 ft 2 kts 35°
2026-05-04 20:00 -29.61993 31.10641 306 ft 0 kts 53°
2026-05-04 20:04 -29.61981 31.10654 305 ft 5 kts 44°
2026-05-04 20:04 -29.61948 31.10684 306 ft 7 kts 36°
2026-05-04 20:04 -29.61905 31.10720 308 ft 8 kts 37°
2026-05-04 20:04 -29.61851 31.10766 309 ft 11 kts 37°
2026-05-04 20:05 -29.61779 31.10828 309 ft 14 kts 38°
2026-05-04 20:05 -29.61703 31.10896 307 ft 14 kts 36°
2026-05-04 20:05 -29.61683 31.10963 307 ft 7 kts 105°
2026-05-04 20:05 -29.61715 31.11016 307 ft 10 kts 128°
2026-05-04 20:06 -29.61712 31.11086 310 ft 10 kts 55°
2026-05-04 20:06 -29.61652 31.11146 311 ft 13 kts 37°
2026-05-04 20:06 -29.61574 31.11213 312 ft 15 kts 38°
2026-05-04 20:06 -29.61486 31.11291 309 ft 17 kts 37°
2026-05-04 20:07 -29.61392 31.11372 311 ft 17 kts 37°
2026-05-04 20:07 -29.61313 31.11447 313 ft 12 kts 54°
2026-05-04 20:07 -29.61322 31.11519 310 ft 9 kts 106°
2026-05-04 20:07 -29.61300 31.11573 311 ft 8 kts 47°
2026-05-04 20:08 -29.61255 31.11615 311 ft 10 kts 36°
2026-05-04 20:08 -29.61196 31.11669 311 ft 12 kts 39°
2026-05-04 20:08 -29.61122 31.11734 311 ft 14 kts 37°
2026-05-04 20:08 -29.61037 31.11808 314 ft 17 kts 37°
2026-05-04 20:09 -29.60929 31.11902 312 ft 21 kts 37°
2026-05-04 20:09 -29.60802 31.12014 315 ft 25 kts 37°
2026-05-04 20:09 -29.60659 31.12134 314 ft 25 kts 36°
2026-05-04 20:09 -29.60519 31.12257 315 ft 25 kts 40°
2026-05-04 20:10 -29.60381 31.12379 316 ft 25 kts 37°
2026-05-04 20:10 -29.60244 31.12500 317 ft 25 kts 37°
2026-05-04 20:10 -29.60106 31.12620 317 ft 25 kts 37°
2026-05-04 20:10 -29.59968 31.12739 317 ft 25 kts 37°
2026-05-04 20:11 -29.59834 31.12856 317 ft 17 kts 37°
2026-05-04 20:11 -29.59774 31.12926 319 ft 10 kts 73°
2026-05-04 20:11 -29.59794 31.12984 319 ft 8 kts 123°
2026-05-04 20:11 -29.59832 31.13042 319 ft 10 kts 131°
2026-05-04 20:12 -29.59895 31.13045 318 ft 10 kts 209°
2026-05-04 20:12 -29.59920 31.13024 317 ft 0 kts 218°
2026-05-04 20:12 -29.59926 31.13018 318 ft 13 kts 218°
2026-05-04 20:12 -29.60122 31.12848 316 ft 22 kts 217°
2026-05-04 20:13 -29.60226 31.12758 316 ft 20 kts 217°
2026-05-04 20:13 -29.60302 31.12691 316 ft 22 kts 217°
2026-05-04 20:13 -29.60433 31.12578 316 ft 25 kts 217°
2026-05-04 20:13 -29.60584 31.12447 315 ft 29 kts 217°
2026-05-04 20:14 -29.60752 31.12301 314 ft 32 kts 217°
2026-05-04 20:14 -29.60933 31.12144 312 ft 29 kts 217°
2026-05-04 20:14 -29.60972 31.12058 313 ft 8 kts 307°
2026-05-04 20:14 -29.60917 31.12045 313 ft 9 kts
2026-05-04 20:15 -29.60846 31.12054 316 ft 12 kts
2026-05-04 20:15 -29.60757 31.12068 314 ft 14 kts
2026-05-04 20:15 -29.60667 31.12130 314 ft 16 kts 36°
2026-05-04 20:15 -29.60570 31.12215 316 ft 19 kts 37°
2026-05-04 20:16 -29.60462 31.12310 315 ft 21 kts 37°
2026-05-04 20:16 -29.60342 31.12414 318 ft 22 kts 37°
2026-05-04 20:16 -29.60215 31.12525 317 ft 23 kts 37°
2026-05-04 20:16 -29.60086 31.12637 317 ft 23 kts 37°
2026-05-04 20:17 -29.59957 31.12749 317 ft 23 kts 37°
2026-05-04 20:17 -29.59839 31.12852 319 ft 19 kts 37°
2026-05-04 20:17 -29.59777 31.12918 319 ft 9 kts 65°
2026-05-04 20:17 -29.59776 31.12938 319 ft 0 kts 92°
2026-05-04 20:18 -29.59776 31.12940 319 ft 1 kts 93°
2026-05-04 20:18 -29.59782 31.12957 319 ft 4 kts 113°
2026-05-04 20:19 -29.59804 31.12999 319 ft 10 kts 124°
2026-05-04 20:19 -29.59861 31.13057 319 ft 9 kts 173°
2026-05-04 20:19 -29.59915 31.13027 318 ft 2 kts 216°
2026-05-04 20:20 -29.60047 31.12917 316 ft 58 kts 217°
2026-05-04 20:20 -29.60539 31.12488 315 ft 118 kts 217°
2026-05-04 20:21 -29.61324 31.11805 314 ft 165 kts 217°
2026-05-04 20:21 -29.62292 31.10951 748 ft 177 kts 218°
2026-05-04 20:21 -29.64325 31.09220 2007 ft 196 kts 215°
2026-05-04 20:22 -29.65477 31.08199 2396 ft 218 kts 225°
2026-05-04 20:22 -29.66322 31.06712 3160 ft 226 kts 244°
2026-05-04 20:22 -29.67045 31.05052 3910 ft 239 kts 244°
2026-05-04 20:22 -29.67844 31.03306 4565 ft 254 kts 244°
2026-05-04 20:23 -29.68684 31.01511 5194 ft 267 kts 243°
2026-05-04 20:23 -29.69403 31.00003 5767 ft 275 kts 243°
2026-05-04 20:23 -29.70349 30.98056 6503 ft 280 kts 242°
2026-05-04 20:23 -29.71309 30.96095 7297 ft 283 kts 242°
2026-05-04 20:24 -29.72281 30.94114 8140 ft 286 kts 242°
2026-05-04 20:24 -29.73265 30.92111 8972 ft 289 kts 242°
2026-05-04 20:24 -29.74261 30.90081 9766 ft 293 kts 242°
2026-05-04 20:24 -29.75277 30.88009 10417 ft 304 kts 242°
2026-05-04 20:25 -29.76345 30.85838 10809 ft 321 kts 242°
2026-05-04 20:25 -29.77463 30.83555 11277 ft 334 kts 242°
2026-05-04 20:25 -29.78627 30.81180 11903 ft 342 kts 242°
2026-05-04 20:25 -29.79792 30.78802 12574 ft 347 kts 241°
2026-05-04 20:26 -29.80984 30.76369 13289 ft 351 kts 242°
2026-05-04 20:26 -29.82187 30.73910 14007 ft 355 kts 242°
2026-05-04 20:26 -29.83406 30.71420 14712 ft 358 kts 242°
2026-05-04 20:26 -29.84632 30.68906 15399 ft 362 kts 242°
2026-05-04 20:27 -29.85892 30.66334 16154 ft 365 kts 242°
2026-05-04 20:27 -29.87146 30.63779 16840 ft 368 kts 243°
2026-05-04 20:27 -29.88390 30.61233 17458 ft 371 kts 243°
2026-05-04 20:27 -29.89649 30.58620 18092 ft 375 kts 244°
2026-05-04 20:28 -29.90904 30.55972 18763 ft 378 kts 244°
2026-05-04 20:28 -29.92179 30.53307 19370 ft 381 kts 244°
2026-05-04 20:28 -29.93465 30.50607 19968 ft 385 kts 244°
2026-05-04 20:28 -29.94756 30.47888 20526 ft 387 kts 244°
2026-05-04 20:29 -29.96065 30.45149 20985 ft 393 kts 244°
2026-05-04 20:29 -29.97393 30.42373 21535 ft 394 kts 244°
2026-05-04 20:29 -29.98729 30.39586 22070 ft 399 kts 244°
2026-05-04 20:29 -30.00063 30.36807 22623 ft 402 kts 244°
2026-05-04 20:30 -30.01421 30.33938 23151 ft 404 kts 244°
2026-05-04 20:30 -30.02777 30.31092 23571 ft 407 kts 244°
2026-05-04 20:30 -30.04145 30.28260 23929 ft 412 kts 243°
2026-05-04 20:30 -30.05577 30.25377 24472 ft 415 kts 243°
2026-05-04 20:31 -30.07054 30.22460 25030 ft 416 kts 243°
2026-05-04 20:31 -30.08532 30.19569 25518 ft 416 kts 242°
2026-05-04 20:31 -30.09996 30.16708 25848 ft 422 kts 242°
2026-05-04 20:31 -30.11488 30.13767 26293 ft 424 kts 243°
2026-05-04 20:32 -30.12979 30.10820 26722 ft 426 kts 243°
2026-05-04 20:32 -30.14479 30.07855 27098 ft 428 kts 243°
2026-05-04 20:32 -30.15986 30.04875 27438 ft 432 kts 243°
2026-05-04 20:32 -30.17507 30.01864 27834 ft 435 kts 243°
2026-05-04 20:33 -30.19018 29.98848 28245 ft 434 kts 243°
2026-05-04 20:33 -30.20543 29.95798 28599 ft 437 kts 243°
2026-05-04 20:33 -30.22063 29.92748 28935 ft 441 kts 243°
2026-05-04 20:33 -30.23600 29.89660 29295 ft 441 kts 243°
2026-05-04 20:34 -30.25124 29.86567 29617 ft 445 kts 243°
2026-05-04 20:34 -30.26680 29.83458 29953 ft 446 kts 243°
2026-05-04 20:34 -30.28201 29.80365 30309 ft 449 kts 246°
2026-05-04 20:34 -30.29592 29.77109 30605 ft 446 kts 247°
2026-05-04 20:35 -30.30911 29.73890 30833 ft 449 kts 248°
2026-05-04 20:35 -30.32231 29.70600 31109 ft 450 kts 248°
2026-05-04 20:35 -30.33546 29.67309 31328 ft 453 kts 249°
2026-05-04 20:35 -30.34865 29.63983 31639 ft 453 kts 248°
2026-05-04 20:36 -30.36182 29.60663 31914 ft 455 kts 248°
2026-05-04 20:36 -30.37492 29.57347 32233 ft 453 kts 249°
2026-05-04 20:36 -30.38815 29.54020 32555 ft 453 kts 248°
2026-05-04 20:36 -30.40141 29.50712 32968 ft 453 kts 248°
2026-05-04 20:37 -30.41462 29.47408 33450 ft 449 kts 248°
2026-05-04 20:37 -30.42765 29.44134 33854 ft 447 kts 249°
2026-05-04 20:37 -30.44054 29.40865 34227 ft 445 kts 249°
2026-05-04 20:37 -30.45349 29.37602 34542 ft 445 kts 249°
2026-05-04 20:38 -30.46645 29.34353 34947 ft 443 kts 249°
2026-05-04 20:38 -30.47922 29.31138 35284 ft 438 kts 249°
2026-05-04 20:38 -30.49198 29.27923 35427 ft 440 kts 249°
2026-05-04 20:38 -30.50478 29.24682 35734 ft 439 kts 249°
2026-05-04 20:39 -30.51748 29.21471 35976 ft 438 kts 249°
2026-05-04 20:39 -30.53013 29.18261 36172 ft 439 kts 249°
2026-05-04 20:39 -30.54267 29.15076 36439 ft 439 kts 249°
2026-05-04 20:39 -30.55532 29.11870 36746 ft 435 kts 249°
2026-05-04 20:40 -30.56793 29.08688 36895 ft 432 kts 249°
2026-05-04 20:40 -30.58045 29.05513 37054 ft 433 kts 249°
2026-05-04 20:40 -30.59291 29.02344 37391 ft 430 kts 249°
2026-05-04 20:40 -30.60524 28.99186 37732 ft 427 kts 249°
2026-05-04 20:41 -30.61749 28.96068 38010 ft 423 kts 249°
2026-05-04 20:41 -30.62964 28.92961 38142 ft 423 kts 249°
2026-05-04 20:41 -30.64189 28.89840 38304 ft 425 kts 249°
2026-05-04 20:41 -30.65410 28.86718 38575 ft 424 kts 249°
2026-05-04 20:42 -30.66629 28.83615 38840 ft 422 kts 250°
2026-05-04 20:42 -30.67838 28.80516 39068 ft 420 kts 250°
2026-05-04 20:42 -30.69039 28.77429 39249 ft 420 kts 250°
2026-05-04 20:42 -30.70242 28.74331 39405 ft 420 kts 250°
2026-05-04 20:43 -30.71433 28.71267 39588 ft 420 kts 250°
2026-05-04 20:43 -30.72636 28.68170 39745 ft 420 kts 250°
2026-05-04 20:43 -30.73841 28.65070 39867 ft 421 kts 250°
2026-05-04 20:43 -30.75046 28.61966 39953 ft 422 kts 250°
2026-05-04 20:44 -30.77474 28.55709 39965 ft 424 kts 250°
2026-05-04 20:44 -30.78301 28.53588 39968 ft 423 kts 250°